Time,TemperatureF,DewpointF,PressureIn,WindDirection,WindDirectionDegrees,WindSpeedMPH,WindSpeedGustMPH,Humidity,HourlyPrecipIn,Conditions,Clouds,dailyrainin,SoftwareType,DateUTC
2013-09-18 00:08:00,52.8,44.0,30.21,SW,229,2.0,6.0,73,0.00,,,0.00,weatherlink.com 1.10,2013-09-18 04:08:00,
2013-09-18 00:23:00,52.6,45.0,30.21,SSW,212,1.0,5.0,74,0.00,,,0.00,weatherlink.com 1.10,2013-09-18 04:23:00,
2013-09-18 00:38:00,52.1,44.0,30.20,SE,132,2.0,5.0,75,0.00,,,0.00,weatherlink.com 1.10,2013-09-18 04:38:00,
2013-09-18 00:53:00,51.7,44.0,30.20,SSW,212,1.0,5.0,76,0.00,,,0.00,weatherlink.com 1.10,2013-09-18 04:53:00,
2013-09-18 01:08:00,51.3,45.0,30.20,SW,231,2.0,3.0,78,0.00,,,0.00,weatherlink.com 1.10,2013-09-18 05:08:00,
2013-09-18 01:23:00,50.7,45.0,30.20,SW,232,2.0,2.0,80,0.00,,,0.00,weatherlink.com 1.10,2013-09-18 05:23:00,
2013-09-18 01:38:00,50.1,45.0,30.20,SW,229,1.0,3.0,82,0.00,,,0.00,weatherlink.com 1.10,2013-09-18 05:38:00,
2013-09-18 01:53:00,49.8,45.0,30.20,SW,219,1.0,2.0,83,0.00,,,0.00,weatherlink.com 1.10,2013-09-18 05:53:00,
2013-09-18 02:08:00,49.3,44.0,30.19,SW,231,1.0,2.0,83,0.00,,,0.00,weatherlink.com 1.10,2013-09-18 06:08:00,
2013-09-18 02:23:00,48.7,44.0,30.19,SW,217,0.0,2.0,85,0.00,,,0.00,weatherlink.com 1.10,2013-09-18 06:23:00,
2013-09-18 02:38:00,47.7,44.0,30.19,SW,226,0.0,1.0,87,0.00,,,0.00,weatherlink.com 1.10,2013-09-18 06:38:00,
2013-09-18 02:53:00,47.1,44.0,30.18,SW,232,0.0,1.0,89,0.00,,,0.00,weatherlink.com 1.10,2013-09-18 06:53:00,
2013-09-18 03:08:00,46.8,44.0,30.18,South,188,0.0,1.0,90,0.00,,,0.00,weatherlink.com 1.10,2013-09-18 07:08:00,
2013-09-18 03:23:00,46.5,44.0,30.18,WSW,255,0.0,1.0,90,0.00,,,0.00,weatherlink.com 1.10,2013-09-18 07:23:00,
2013-09-18 03:38:00,46.5,44.0,30.17,WSW,251,0.0,1.0,90,0.00,,,0.00,weatherlink.com 1.10,2013-09-18 07:38:00,
2013-09-18 03:53:00,46.4,44.0,30.17,SW,225,0.0,2.0,90,0.00,,,0.00,weatherlink.com 1.10,2013-09-18 07:53:00,
2013-09-18 04:08:00,46.2,44.0,30.17,SW,225,0.0,1.0,91,0.00,,,0.00,weatherlink.com 1.10,2013-09-18 08:08:00,
2013-09-18 04:23:00,46.0,44.0,30.17,SW,225,1.0,1.0,91,0.00,,,0.00,weatherlink.com 1.10,2013-09-18 08:23:00,
2013-09-18 04:38:00,45.9,44.0,30.17,WSW,256,0.0,1.0,91,0.00,,,0.00,weatherlink.com 1.10,2013-09-18 08:38:00,
2013-09-18 04:53:00,45.8,44.0,30.17,West,263,0.0,1.0,92,0.00,,,0.00,weatherlink.com 1.10,2013-09-18 08:53:00,
2013-09-18 05:08:00,45.7,44.0,30.16,West,279,1.0,1.0,92,0.00,,,0.00,weatherlink.com 1.10,2013-09-18 09:08:00,
2013-09-18 05:23:00,45.5,44.0,30.16,West,281,0.0,1.0,93,0.00,,,0.00,weatherlink.com 1.10,2013-09-18 09:23:00,
2013-09-18 05:39:00,45.1,43.0,30.16,West,281,0.0,1.0,93,0.00,,,0.00,weatherlink.com 1.10,2013-09-18 09:39:00,
2013-09-18 05:54:00,45.4,44.0,30.15,WSW,243,0.0,1.0,94,0.00,,,0.00,weatherlink.com 1.10,2013-09-18 09:54:00,
2013-09-18 06:09:00,45.7,44.0,30.16,WSW,246,0.0,1.0,94,0.00,,,0.00,weatherlink.com 1.10,2013-09-18 10:09:00,
2013-09-18 06:24:00,45.5,44.0,30.15,WSW,245,0.0,1.0,94,0.00,,,0.00,weatherlink.com 1.10,2013-09-18 10:24:00,
2013-09-18 06:39:00,46.5,45.0,30.15,SSW,201,0.0,2.0,94,0.00,,,0.00,weatherlink.com 1.10,2013-09-18 10:39:00,
2013-09-18 06:54:00,45.9,44.0,30.15,SW,235,1.0,3.0,94,0.00,,,0.00,weatherlink.com 1.10,2013-09-18 10:54:00,
2013-09-18 07:09:00,46.5,45.0,30.15,West,275,2.0,3.0,94,0.00,,,0.00,weatherlink.com 1.10,2013-09-18 11:09:00,
2013-09-18 07:24:00,47.1,46.0,30.16,WNW,294,3.0,3.0,94,0.00,,,0.00,weatherlink.com 1.10,2013-09-18 11:24:00,
2013-09-18 07:39:00,47.8,46.0,30.16,West,266,0.0,1.0,93,0.00,,,0.00,weatherlink.com 1.10,2013-09-18 11:39:00,
2013-09-18 07:54:00,49.1,46.0,30.16,West,265,1.0,1.0,90,0.00,,,0.00,weatherlink.com 1.10,2013-09-18 11:54:00,
2013-09-18 08:09:00,49.9,47.0,30.16,West,265,0.0,1.0,90,0.00,,,0.00,weatherlink.com 1.10,2013-09-18 12:09:00,
2013-09-18 08:24:00,50.8,47.0,30.15,WSW,238,1.0,2.0,88,0.00,,,0.00,weatherlink.com 1.10,2013-09-18 12:24:00,
2013-09-18 08:39:00,51.9,49.0,30.15,SSW,203,1.0,3.0,88,0.00,,,0.00,weatherlink.com 1.10,2013-09-18 12:39:00,
2013-09-18 08:54:00,53.4,50.0,30.15,WSW,239,1.0,4.0,88,0.00,,,0.00,weatherlink.com 1.10,2013-09-18 12:54:00,
2013-09-18 09:09:00,55.0,51.0,30.15,SW,223,1.0,6.0,86,0.00,,,0.00,weatherlink.com 1.10,2013-09-18 13:09:00,
2013-09-18 09:24:00,56.5,51.0,30.15,SW,233,2.0,4.0,83,0.00,,,0.00,weatherlink.com 1.10,2013-09-18 13:24:00,
2013-09-18 09:39:00,56.0,51.0,30.14,WSW,239,2.0,5.0,84,0.00,,,0.00,weatherlink.com 1.10,2013-09-18 13:39:00,
2013-09-18 09:54:00,56.5,52.0,30.14,SW,235,5.0,6.0,84,0.00,,,0.00,weatherlink.com 1.10,2013-09-18 13:54:00,
2013-09-18 10:09:00,58.3,53.0,30.14,SW,221,3.0,7.0,81,0.00,,,0.00,weatherlink.com 1.10,2013-09-18 14:09:00,
2013-09-18 10:24:00,59.9,53.0,30.14,WSW,246,1.0,7.0,79,0.00,,,0.00,weatherlink.com 1.10,2013-09-18 14:24:00,
2013-09-18 10:39:00,62.0,54.0,30.14,SW,225,4.0,8.0,75,0.00,,,0.00,weatherlink.com 1.10,2013-09-18 14:39:00,
2013-09-18 10:54:00,63.5,55.0,30.13,South,173,2.0,8.0,75,0.00,,,0.00,weatherlink.com 1.10,2013-09-18 14:54:00,
2013-09-18 11:09:00,65.2,55.0,30.12,SW,215,6.0,8.0,70,0.00,,,0.00,weatherlink.com 1.10,2013-09-18 15:09:00,
2013-09-18 11:24:00,67.1,56.0,30.12,WSW,240,3.0,7.0,67,0.00,,,0.00,weatherlink.com 1.10,2013-09-18 15:24:00,
2013-09-18 11:39:00,68.6,56.0,30.11,SW,233,4.0,6.0,64,0.00,,,0.00,weatherlink.com 1.10,2013-09-18 15:39:00,
2013-09-18 11:55:00,69.6,56.0,30.11,West,271,1.0,7.0,63,0.00,,,0.00,weatherlink.com 1.10,2013-09-18 15:55:00,
2013-09-18 12:10:00,70.5,56.0,30.10,SSW,201,2.0,7.0,61,0.00,,,0.00,weatherlink.com 1.10,2013-09-18 16:10:00,
2013-09-18 12:25:00,72.2,56.0,30.09,WSW,248,3.0,5.0,58,0.00,,,0.00,weatherlink.com 1.10,2013-09-18 16:25:00,
2013-09-18 12:40:00,73.1,57.0,30.09,WSW,237,1.0,6.0,57,0.00,,,0.00,weatherlink.com 1.10,2013-09-18 16:40:00,
2013-09-18 12:55:00,73.2,55.0,30.08,SW,221,2.0,7.0,54,0.00,,,0.00,weatherlink.com 1.10,2013-09-18 16:55:00,
2013-09-18 13:10:00,74.4,57.0,30.07,WSW,250,2.0,11.0,54,0.00,,,0.00,weatherlink.com 1.10,2013-09-18 17:10:00,
2013-09-18 13:25:00,74.5,56.0,30.07,NW,306,2.0,7.0,53,0.00,,,0.00,weatherlink.com 1.10,2013-09-18 17:25:00,
2013-09-18 13:40:00,75.7,56.0,30.07,SW,225,4.0,6.0,50,0.00,,,0.00,weatherlink.com 1.10,2013-09-18 17:40:00,
2013-09-18 13:55:00,76.2,56.0,30.06,NW,316,0.0,5.0,49,0.00,,,0.00,weatherlink.com 1.10,2013-09-18 17:55:00,
2013-09-18 14:10:00,76.7,54.0,30.05,SSE,148,4.0,11.0,46,0.00,,,0.00,weatherlink.com 1.10,2013-09-18 18:10:00,
2013-09-18 14:25:00,77.2,55.0,30.05,SSE,165,4.0,12.0,47,0.00,,,0.00,weatherlink.com 1.10,2013-09-18 18:25:00,
2013-09-18 14:40:00,76.8,55.0,30.04,South,174,4.0,14.0,47,0.00,,,0.00,weatherlink.com 1.10,2013-09-18 18:40:00,
2013-09-18 14:55:00,78.0,56.0,30.03,SSW,208,0.0,5.0,46,0.00,,,0.00,weatherlink.com 1.10,2013-09-18 18:55:00,
2013-09-18 15:10:00,77.3,54.0,30.02,SW,235,2.0,12.0,44,0.00,,,0.00,weatherlink.com 1.10,2013-09-18 19:10:00,
2013-09-18 15:25:00,78.5,54.0,30.02,South,191,2.0,10.0,43,0.00,,,0.00,weatherlink.com 1.10,2013-09-18 19:25:00,
2013-09-18 16:27:00,-999.0,-99.9,0.00,North,-999,-999.0,-999.0,-999,0.00,,,0.00,weatherlink.com 1.10,2013-09-18 20:27:00,
2013-09-18 16:39:00,77.9,53.0,30.00,SW,217,7.0,13.0,42,0.00,,,0.00,weatherlink.com 1.10,2013-09-18 20:39:00,
2013-09-18 16:54:00,76.8,54.0,30.00,SW,233,5.0,7.0,46,0.00,,,0.00,weatherlink.com 1.10,2013-09-18 20:54:00,
2013-09-18 17:09:00,77.7,55.0,29.99,WSW,240,2.0,8.0,45,0.00,,,0.00,weatherlink.com 1.10,2013-09-18 21:09:00,
2013-09-18 17:24:00,77.6,54.0,29.99,SE,127,2.0,10.0,44,0.00,,,0.00,weatherlink.com 1.10,2013-09-18 21:24:00,
2013-09-18 17:39:00,78.1,55.0,29.99,WSW,255,4.0,7.0,45,0.00,,,0.00,weatherlink.com 1.10,2013-09-18 21:39:00,
2013-09-18 17:54:00,78.0,55.0,29.98,SSW,197,6.0,11.0,45,0.00,,,0.00,weatherlink.com 1.10,2013-09-18 21:54:00,
2013-09-18 18:09:00,77.2,54.0,29.98,SSE,156,2.0,10.0,45,0.00,,,0.00,weatherlink.com 1.10,2013-09-18 22:09:00,
2013-09-18 18:24:00,76.7,54.0,29.98,SW,222,3.0,10.0,46,0.00,,,0.00,weatherlink.com 1.10,2013-09-18 22:24:00,
2013-09-18 18:39:00,76.4,55.0,29.98,SSE,160,3.0,7.0,47,0.00,,,0.00,weatherlink.com 1.10,2013-09-18 22:39:00,
2013-09-18 18:54:00,76.1,55.0,29.98,SSE,155,2.0,7.0,49,0.00,,,0.00,weatherlink.com 1.10,2013-09-18 22:54:00,
2013-09-18 19:09:00,74.9,55.0,29.98,WSW,255,1.0,7.0,50,0.00,,,0.00,weatherlink.com 1.10,2013-09-18 23:09:00,
2013-09-18 19:24:00,73.0,55.0,29.98,SSE,159,0.0,5.0,54,0.00,,,0.00,weatherlink.com 1.10,2013-09-18 23:24:00,
2013-09-18 19:39:00,71.7,55.0,29.98,SSW,205,1.0,5.0,56,0.00,,,0.00,weatherlink.com 1.10,2013-09-18 23:39:00,
2013-09-18 19:54:00,70.7,55.0,29.98,SW,222,0.0,6.0,57,0.00,,,0.00,weatherlink.com 1.10,2013-09-18 23:54:00,
2013-09-18 20:10:00,69.8,55.0,29.98,SW,217,2.0,3.0,59,0.00,,,0.00,weatherlink.com 1.10,2013-09-19 00:10:00,
2013-09-18 20:24:00,69.1,55.0,29.99,West,260,1.0,4.0,61,0.00,,,0.00,weatherlink.com 1.10,2013-09-19 00:24:00,
2013-09-18 20:39:00,68.6,55.0,29.99,SSE,162,0.0,3.0,62,0.00,,,0.00,weatherlink.com 1.10,2013-09-19 00:39:00,
2013-09-18 20:55:00,68.5,54.0,29.99,SSE,162,0.0,6.0,61,0.00,,,0.00,weatherlink.com 1.10,2013-09-19 00:55:00,
2013-09-18 21:09:00,68.6,54.0,29.99,ESE,106,2.0,6.0,61,0.00,,,0.00,weatherlink.com 1.10,2013-09-19 01:09:00,
2013-09-18 21:25:00,68.5,54.0,30.00,SW,218,2.0,7.0,61,0.00,,,0.00,weatherlink.com 1.10,2013-09-19 01:25:00,
2013-09-18 21:40:00,68.1,54.0,30.00,SSE,154,1.0,7.0,62,0.00,,,0.00,weatherlink.com 1.10,2013-09-19 01:40:00,
2013-09-18 21:55:00,67.8,54.0,30.00,East,92,6.0,6.0,62,0.00,,,0.00,weatherlink.com 1.10,2013-09-19 01:55:00,
2013-09-18 22:10:00,67.2,55.0,30.00,SW,222,1.0,7.0,64,0.00,,,0.00,weatherlink.com 1.10,2013-09-19 02:10:00,
2013-09-18 22:25:00,66.5,55.0,30.00,WSW,238,2.0,6.0,66,0.00,,,0.00,weatherlink.com 1.10,2013-09-19 02:25:00,
2013-09-18 22:40:00,66.2,55.0,30.00,SW,222,10.0,10.0,67,0.00,,,0.00,weatherlink.com 1.10,2013-09-19 02:40:00,
2013-09-18 22:55:00,65.8,54.0,29.99,SW,230,3.0,7.0,67,0.00,,,0.00,weatherlink.com 1.10,2013-09-19 02:55:00,
2013-09-18 23:10:00,65.6,55.0,29.99,SE,139,2.0,9.0,68,0.00,,,0.00,weatherlink.com 1.10,2013-09-19 03:10:00,
2013-09-18 23:25:00,65.3,55.0,29.99,South,175,4.0,7.0,69,0.00,,,0.00,weatherlink.com 1.10,2013-09-19 03:25:00,
2013-09-18 23:40:00,65.0,55.0,29.99,SSW,205,2.0,6.0,70,0.00,,,0.00,weatherlink.com 1.10,2013-09-19 03:40:00,
2013-09-18 23:55:00,64.8,55.0,29.99,SE,126,2.0,8.0,70,0.00,,,0.00,weatherlink.com 1.10,2013-09-19 03:55:00,